Location: Larrial
(48.2758°N, 4.5331°W)
Time: 18:42:47
(UTC+00:00)

LilacSat-2 - Visible Passes

Search period start: 07 December 2021 00:00
Search period end: 17 December 2021 00:00
Orbit: 511 x 532 km, 97.5° (Epoch: 07 December)

Date Brightness Start Highest point End Pass type
(mag) Time Alt. Az. Time Alt. Az. Time Alt. Az.
07 Dec ? 06:03:22 10° NNE 06:07:12 60° E 06:11:01 10° S visible
07 Dec ? 18:23:33 10° SW 18:25:50 15° W 18:28:09 10° NW visible
08 Dec ? 05:50:29 10° NNE 05:54:11 42° E 05:57:51 10° S visible
08 Dec ? 18:09:49 10° SW 18:12:44 21° W 18:15:40 10° NW visible
09 Dec ? 05:37:40 10° NNE 05:41:08 30° E 05:44:33 10° SSE visible
09 Dec ? 07:12:00 10° N 07:15:11 25° WNW 07:18:23 10° WSW visible
09 Dec ? 17:56:21 10° SSW 17:59:39 28° W 18:03:00 10° NW visible
10 Dec ? 05:24:57 10° NE 05:28:03 22° E 05:31:07 10° SSE visible
10 Dec ? 06:58:47 10° N 07:02:17 33° WNW 07:05:46 10° SW visible
10 Dec ? 17:43:01 10° SSW 17:46:35 39° W 17:50:12 10° NNW visible
11 Dec ? 05:12:23 10° NE 05:14:57 17° E 05:17:29 10° SE visible
11 Dec ? 06:45:39 10° N 06:49:21 45° WNW 06:53:03 10° SW visible
11 Dec ? 17:29:49 10° S 17:33:33 55° W 17:37:19 10° NNW visible
12 Dec ? 05:00:12 10° ENE 05:01:49 12° E 05:03:25 10° ESE visible
12 Dec ? 06:32:33 10° N 06:36:24 64° WNW 06:40:13 10° SSW visible
12 Dec ? 17:16:44 10° S 17:20:31 79° WSW 17:24:22 10° NNW visible
13 Dec ? 06:19:32 10° NNE 06:23:25 89° WNW 06:27:17 10° SSW visible
13 Dec ? 17:03:44 10° SSE 17:07:31 74° ENE 17:11:22 10° N visible
13 Dec ? 18:41:32 10° W 18:42:12 10° W 18:42:52 10° WNW visible
14 Dec ? 06:06:33 10° NNE 06:10:24 65° ESE 06:14:14 10° S visible
14 Dec ? 18:26:55 10° SW 18:29:03 14° W 18:31:12 10° NW visible
15 Dec ? 05:53:38 10° NNE 05:57:22 46° E 06:01:05 10° S visible
15 Dec ? 18:13:06 10° SW 18:15:55 20° W 18:18:46 10° NW visible
16 Dec ? 05:40:47 10° NNE 05:44:18 33° E 05:47:48 10° SSE visible
16 Dec ? 07:15:14 10° NNW 07:18:20 23° WNW 07:21:25 10° WSW visible
16 Dec ? 17:59:33 10° SSW 18:02:49 26° W 18:06:06 10° NW visible
